This is the latest recevied weather packets stored in our database for station/object HP3ICC-23. If no packets are shown the sender has not sent any weather packets the latest 10 day(s).
| Time | Temp. | Humidity | Pressure | Rain* | Wind** | Luminosity | Snow |
|---|---|---|---|---|---|---|---|
| 1777636874 | 15.56° C | 87% | 1011 hPa | 0.25 mm | - | - | - |
| 1777636813 | 15.56° C | 87% | 1011 hPa | 0.25 mm | - | - | - |
| 1777635673 | 13.33° C | 86% | 1011 hPa | 0 mm | - | - | - |
| 1777635613 | 13.33° C | 86% | 1011 hPa | 0 mm | - | - | - |
| 1777634473 | 13.89° C | 86% | 1009 hPa | 0.25 mm | - | - | - |
| 1777634413 | 13.89° C | 86% | 1009 hPa | 0.25 mm | - | - | - |
| 1777633272 | 13.33° C | 84% | 1011 hPa | 0 mm | - | - | - |
| 1777633212 | 13.33° C | 84% | 1011 hPa | 0 mm | - | - | - |
| 1777632072 | 13.89° C | 84% | 1011 hPa | 0 mm | - | - | - |
| 1777632011 | 13.89° C | 84% | 1011 hPa | 0 mm | - | - | - |
| 1777630871 | 13.33° C | 84% | 1010 hPa | 0 mm | - | - | - |
| 1777630811 | 13.33° C | 84% | 1010 hPa | 0 mm | - | - | - |
| 1777629671 | 13.89° C | 84% | 1011 hPa | 0 mm | - | - | - |
| 1777629610 | 13.89° C | 84% | 1011 hPa | 0 mm | - | - | - |
| 1777628469 | 13.33° C | 84% | 1011 hPa | 0 mm | - | - | - |
| 1777628409 | 13.33° C | 84% | 1011 hPa | 0 mm | - | - | - |
| 1777627269 | 13.89° C | 84% | 1010 hPa | 0 mm | - | - | - |
| 1777627209 | 13.89° C | 84% | 1010 hPa | 0 mm | - | - | - |
| 1777626068 | 13.33° C | 81% | 1010 hPa | 0 mm | - | - | - |
| 1777626008 | 13.33° C | 81% | 1010 hPa | 0 mm | - | - | - |
| 1777624867 | 13.89° C | 81% | 1010 hPa | 0 mm | - | - | - |
| 1777624807 | 13.89° C | 81% | 1010 hPa | 0 mm | - | - | - |
| 1777623667 | 14.44° C | 84% | 1010 hPa | 0 mm | - | - | - |
| 1777623607 | 14.44° C | 84% | 1010 hPa | 0 mm | - | - | - |
| 1777622467 | 13.33° C | 85% | 1010 hPa | 0.25 mm | - | - | - |
* Rain latest hour (hover to see other rain measurements)
** Current wind speed in m/s (hover to see current wind gust speed)